Weather Roundup
Issued by NWS Chicago, IL

Home | Current Version | Previous Version | Graphics & Text | Print | Product List | Glossary On
Versions: 1 2 3 4 5 6 7 8 9 10 11 12 13 14 15 16 17 18 19 20 21 22 23 24 25 26 27 28 29 30 31 32 33 34 35 36 37 38 39 40 41 42 43 44 45 46 47 48 49 50
131
NZUS59 KLOT 252108
HRRLOT

CHICAGO AREA WEATHER ROUNDUP
NATIONAL WEATHER SERVICE CHICAGO/ROMEOVILLE IL
300 PM CST SAT FEB 25 2017

NOTE: "FAIR" INDICATES FEW OR NO CLOUDS BELOW 12,000 FEET WITH NO
SIGNIFICANT WEATHER AND/OR OBSTRUCTIONS TO VISIBILITY.

* THESE STATIONS ARE NOT UNDER NWS QUALITY CONTROL. THEY ALSO MAY NOT
  REPORT WEATHER SUCH AS PRECIPITATION OR FOG.

ILZ005-006-012>014-019>023-252200-
NORTHEAST ILLINOIS

CITY           SKY/WX    TMP DP  RH WIND       PRES   REMARKS
OHARE          FLURRIES  26  14  60 W18       29.91R WCI  13
MIDWAY         FLURRIES  28  12  51 W22G32    29.92R WCI  14
AURORA         CLOUDY    28  18  66 W21G30    29.93R WCI  15
LANSING*       CLOUDY    28  19  68 W16G25    29.92R WCI  16
JOLIET*        CLOUDY    29  17  59 W13G23    29.94R WCI  19
WAUKEGAN       CLOUDY    23  13  65 NW12G21   29.89R WCI  12
DUPAGE AIRPORT CLOUDY    26  14  60 W21G28    29.91R WCI  12
WHEELING       CLOUDY    25  12  58 NW17G26   29.91R WCI  12
KANKAKEE*      PTSUNNY   30  15  54 W18G26    29.95R WCI  18
MORRIS*        CLOUDY    28  18  65 W22G29    29.94R WCI  15
LEWIS AIRPORT* CLOUDY    27  20  74 W20G28    29.93R WCI  14
NORTHERLY ISL    N/A     26  15  63 W12         N/A  WCI  16
$$

WIZ051-052-058>065-066-070>072-252200-
SOUTHEAST WISCONSIN

CITY           SKY/WX    TMP DP  RH WIND       PRES   REMARKS
MILWAUKEE      FLURRIES  22   9  57 W16G25    29.88R WCI   8
KENOSHA*       CLOUDY    23  12  62 W14       29.89R WCI  11
RACINE*        CLOUDY    21   9  59 NW16G23   29.90R WCI   7
WAUKESHA       CLOUDY    18  10  73 W20G25    29.88R WCI   1
WEST BEND      CLOUDY    21  16  79 W8        29.86R WCI  12
$$

INZ001>003-010>013-019-020-252200-
NORTHWEST INDIANA

CITY           SKY/WX    TMP DP  RH WIND       PRES   REMARKS
GARY*          CLOUDY    30  12  47 W14       29.92R WCI  20
MICHIGAN CITY* NOT AVBL
RENSSELAER*    NOT AVBL
VALPARAISO     CLOUDY    29  16  58 W15G25    29.91R WCI  18
$$

LMZ740>746-252200-
SOUTHERN LAKE MICHIGAN

STATION/POSITION TIME  SKY/WX   TEMP WIND        PRES    VSBY
                                AIR  DIR/SP/G
                 (UTC)          (F)  (DEG/KT/KT) (MB)    (MI)
HARRISON CRIB    2040            26  280/ 21/ 23   N/A
BURNHAM HARBOR   2100            26  290/ 10/ 17   N/A
CALUMET HARBOR   2048            27  260/ 11/ 17 1012.2R
BURNS HARBOR     2040            27  280/ 19/ 23 1012.9R
MICHIGAN CITY    2040            25  240/ 24/ 27   N/A
$$

ABBREVIATIONS USED IN REMARKS
   TC - TEMPERATURE IN CELSIUS
  WCI - WIND CHILL INDEX
   HX - HEAT INDEX
  VSB - VISIBILITY
$$




USA.gov is the U.S. government's official web portal to all federal, state and local government web resources and services.